Tracking 29606 objects as of 18-Sep-2024
HD Live streaming from Space Station
objects crossing your sky now

COSMOS 1375 DEB

Track COSMOS 1375 DEB now!
10-day predictions


NORAD ID: 16210
Int'l Code: 1982-055M
Perigee: 973.9 km
Apogee: 1,007.2 km
Inclination: 65.8 °
Period: 104.8 minutes
Semi major axis: 7361 km
RCS: 0.1231 m2 (medium)
Launch date: June 6, 1982
Source: Commonwealth of Independent States (former USSR) (CIS)
Launch site: PLESETSK MISSILE AND SPACE COMPLEX (PKMTR)

Note: This is SATELLITE DEBRIS
Your satellite tracking list
Your tracking list is empty




NASA's NSSDC Master Catalog

Two Line Element Set (TLE):
1 16210U 82055M   24261.95095557 -.00000026  00000-0  57744-4 0  9990
2 16210  65.8331 213.0349 0022647  15.4184  45.5609 13.74520536952320
Source of the keplerian elements: AFSPC